This is the latest recevied weather packets stored in our database for station/object KC1TEM-13. If no packets are shown the sender has not sent any weather packets the latest 10 day(s).
| Time | Temp. | Humidity | Pressure | Rain* | Wind** | Luminosity | Snow |
|---|---|---|---|---|---|---|---|
| 1777833486 | 12.78° C | 42% | 1006.2 hPa | 0 mm | - | 474 W/m² | - |
| 1777833183 | 12.22° C | 44% | 1006 hPa | 0 mm | - | 613 W/m² | - |
| 1777832880 | 11.67° C | 47% | 1006.1 hPa | 0 mm | - | 516 W/m² | - |
| 1777832580 | 11.11° C | 46% | 1006.1 hPa | 0 mm | - | 567 W/m² | - |
| 1777832276 | 10.56° C | 48% | 1006 hPa | 0 mm | - | 559 W/m² | - |
| 1777831973 | 10.56° C | 50% | 1006.2 hPa | 0 mm | - | 231 W/m² | - |
| 1777831669 | 11.11° C | 51% | 1006.1 hPa | 0 mm | - | 180 W/m² | - |
| 1777831368 | 11.11° C | 48% | 1006 hPa | 0 mm | - | 212 W/m² | - |
| 1777831064 | 10.56° C | 49% | 1006 hPa | 0 mm | - | 349 W/m² | - |
| 1777830762 | 10.56° C | 48% | 1005.9 hPa | 0 mm | - | 226 W/m² | - |
| 1777830458 | 10.56° C | 49% | 1006 hPa | 0 mm | - | 183 W/m² | - |
| 1777830156 | 10.56° C | 51% | 1005.9 hPa | 0 mm | - | 239 W/m² | - |
| 1777829856 | 10.56° C | 49% | 1006.1 hPa | 0 mm | - | 215 W/m² | - |
| 1777829552 | 10.56° C | 50% | 1005.9 hPa | 0 mm | - | 163 W/m² | - |
| 1777829249 | 10.56° C | 49% | 1005.9 hPa | 0 mm | - | 204 W/m² | - |
| 1777828947 | 10.56° C | 52% | 1005.7 hPa | 0 mm | - | 260 W/m² | - |
| 1777828643 | 10.56° C | 55% | 1006 hPa | 0 mm | - | 252 W/m² | - |
| 1777828340 | 10.56° C | 56% | 1005.9 hPa | 0 mm | - | 250 W/m² | - |
| 1777828037 | 10° C | 55% | 1006 hPa | 0 mm | - | 276 W/m² | - |
| 1777827734 | 10° C | 55% | 1006 hPa | 0 mm | - | 278 W/m² | - |
| 1777827431 | 9.44° C | 55% | 1006.2 hPa | 0 mm | - | 285 W/m² | - |
| 1777827128 | 9.44° C | 58% | 1006.1 hPa | 0 mm | - | 280 W/m² | - |
| 1777826824 | 8.89° C | 61% | 1006 hPa | 0 mm | - | 229 W/m² | - |
| 1777826521 | 8.89° C | 65% | 1006.3 hPa | 0 mm | - | 219 W/m² | - |
| 1777826217 | 8.89° C | 61% | 1006.2 hPa | 0 mm | - | 164 W/m² | - |
* Rain latest hour (hover to see other rain measurements)
** Current wind speed in m/s (hover to see current wind gust speed)